Temperature
21 20 22 21 20 20 20 20 20 20 20 20 20 20 20 20 20 20 19 19 19 19 19 19 19 19 19 19 19 19 19 19 19 19 19 19 19 18 18 17 17 17 17
22 21 22 21 20 20 20 20 20 20 20 20 20 20 20 20 20 20 20 20 19 19 19 19 19 19 20 20 20 20 20 19 19 19 19 19 19 19 18 18 17 17 18
22 22 22 21 21 20 20 20 20 20 20 20 20 20 20 20 20 20 20 20 20 20 20 20 20 20 20 20 20 20 20 19 19 19 19 18 18 19 19 18 18 18 18
22 22 22 22 21 21 21 20 20 20 20 20 20 20 20 20 20 20 20 20 20 20 20 20 20 20 20 20 20 20 19 19 19 19 18 18 17 18 19 19 18 18 18
21 21 22 22 21 21 21 21 20 20 20 20 20 20 20 20 20 20 20 20 20 20 20 20 19 19 19 19 19 19 19 19 19 19 18 17 17 18 18 18 18 18 18
21 21 22 22 22 21 21 21 21 20 20 20 20 20 20 20 20 19 19 19 19 19 19 19 19 19 19 19 19 19 19 19 19 18 18 17 17 18 18 18 18 18 18
22 21 22 22 22 21 21 21 21 21 20 20 20 20 20 20 19 19 19 19 19 19 19 19 19 19 18 18 18 18 18 18 19 18 18 17 17 17 18 18 17 17 17
22 21 21 22 22 21 21 21 21 20 20 20 20 20 20 20 19 19 19 19 19 19 19 19 19 18 18 18 18 18 18 18 17 17 17 17 17 17 18 18 17 17 17
22 21 21 21 21 21 21 21 20 20 20 20 20 20 19 19 19 19 19 19 19 19 19 19 19 18 18 18 18 18 18 18 18 17 17 17 17 18 18 18 18 17 17
21 21 20 20 20 20 20 20 20 20 20 20 20 20 19 19 19 19 19 19 19 19 19 19 19 19 18 18 18 18 18 18 17 17 18 18 17 18 18 18 18 18 17
21 20 20 20 20 19 19 19 20 20 20 20 19 19 20 19 18 18 19 19 19 19 19 19 19 19 19 18 19 18 18 17 18 18 18 18 18 18 18 18 18 18 18
21 20 20 20 20 19 19 19 19 19 19 19 18 18 18 18 18 18 18 19 19 19 19 19 19 19 19 18 18 18 18 18 18 18 18 18 18 18 18 18 18 18 18
21 21 21 20 20 20 19 19 19 19 18 18 18 18 18 18 18 18 18 19 19 19 19 18 18 18 18 18 18 18 18 18 18 18 18 18 18 18 18 18 18 18 18
22 21 21 21 21 21 20 19 19 19 19 19 18 18 18 18 18 18 18 18 18 18 18 18 18 18 18 18 18 18 18 18 18 18 18 18 18 18 18 18 18 18 18
22 22 21 22 21 22 21 21 20 19 19 19 18 18 18 18 18 18 18 18 18 18 18 18 18 18 18 18 18 18 18 18 18 18 18 18 19 18 18 18 18 18 18
22 22 22 22 22 22 22 21 20 19 19 19 18 18 18 18 18 18 18 18 18 18 18 18 18 18 18 18 18 18 18 18 18 18 18 18 18 19 18 18 18 18 18
22 22 22 22 22 22 21 21 20 19 19 19 18 18 18 18 18 18 18 18 18 18 18 18 18 18 18 18 18 18 18 18 18 18 18 18 18 18 19 19 18 18 18
22 22 22 22 21 21 21 21 20 19 19 18 18 18 18 18 18 18 18 18 18 18 18 18 18 18 18 18 18 18 18 18 18 18 18 18 18 18 18 19 19 19 19
22 22 22 21 21 21 20 20 19 19 19 18 18 18 18 18 17 17 17 17 17 17 17 17 17 18 18 18 18 18 18 18 18 18 18 18 18 18 18 18 19 19 19
22 22 22 22 21 21 20 20 20 19 19 18 18 17 17 17 17 17 17 17 17 17 17 17 17 17 17 17 17 17 17 18 18 18 18 18 18 18 18 18 18 18 19
22 22 22 22 21 21 20 20 19 19 18 18 18 17 17 17 16 16 16 16 16 16 16 17 17 17 17 17 17 17 17 17 17 17 18 18 18 18 18 18 18 18 18
22 22 22 22 22 21 21 20 20 19 18 18 17 17 17 16 16 16 16 16 16 16 16 16 16 16 16 16 16 16 17 17 17 17 17 17 18 18 18 17 17 17 18
21 22 22 22 22 21 21 20 19 19 18 18 17 17 16 16 16 16 16 16 16 15 16 16 16 15 16 16 16 16 16 18 18 17 17 17 17 17 17 17 17 17 17
21 21 21 21 21 21 20 20 19 19 18 18 17 17 16 16 16 15 15 15 15 15 15 15 15 15 15 15 16 16 16 16 17 17 17 17 17 17 17 17 17 17 17
20 21 21 20 20 20 20 19 19 18 18 17 17 16 16 15 15 15 15 15 15 15 14 15 15 14 14 15 15 15 15 15 15 16 17 17 17 16 16 16 16 16 16
20 20 20 20 19 19 19 19 19 18 18 17 17 16 16 15 15 14 14 14 14 14 14 14 14 14 14 14 14 15 15 15 16 16 16 16 16 16 16 16 16 16 16
Wind_Speed
14 19 23 18 16 15 15 16 16 16 16 16 15 14 13 12 11 9 8 8 7 7 8 8 8 8 8 8 9 10 10 9 9 9 9 9 8 7 7 8 7 9 11
17 21 23 19 17 16 16 16 16 16 16 15 14 14 13 12 10 9 8 8 7 7 7 6 7 7 7 7 8 9 9 9 8 8 8 9 7 6 6 4 3 9 10
19 21 22 19 18 17 16 16 16 15 15 14 13 12 12 11 10 9 8 7 6 6 6 5 5 5 5 6 7 7 7 7 7 7 7 8 9 7 5 4 2 7 8
19 20 20 20 18 17 16 15 15 15 14 13 12 11 10 10 9 8 7 6 5 5 4 4 4 4 4 4 5 5 6 6 6 7 8 5 7 10 7 6 6 6 7
17 18 20 21 18 17 16 15 14 14 13 12 12 11 10 9 8 7 6 5 4 4 4 3 3 3 3 3 4 4 4 5 5 10 5 3 4 10 7 7 8 9 9
17 18 20 20 18 17 16 15 14 13 13 12 11 10 10 9 8 7 6 5 4 4 4 4 4 4 4 4 5 5 5 6 8 12 6 7 6 10 8 9 10 12 12
17 16 20 20 18 17 16 15 14 13 12 12 11 10 10 9 8 7 7 6 6 6 6 6 6 6 6 6 7 7 8 8 12 11 7 9 7 8 8 10 11 14 15
16 16 19 19 17 17 16 15 13 13 12 11 11 11 10 9 9 8 8 8 8 8 8 8 8 8 8 8 8 9 9 11 13 12 11 11 7 7 9 12 13 14 16
15 14 16 18 17 16 14 13 13 12 11 11 11 11 10 10 10 10 10 10 11 10 10 10 10 10 10 10 10 10 11 11 14 13 12 10 9 10 12 13 15 16 16
13 13 13 14 15 15 15 14 12 12 11 11 11 11 11 11 12 13 13 14 12 11 11 11 11 12 12 12 12 12 12 13 16 15 12 10 11 11 13 15 16 17 17
12 12 12 12 12 12 12 13 13 12 13 12 13 14 12 13 13 12 14 10 10 12 13 13 13 13 13 15 16 16 14 14 14 12 10 6 10 12 15 17 17 18 18
14 13 11 11 11 11 9 9 10 11 11 12 11 10 11 11 10 10 4 8 12 14 15 16 16 15 15 14 15 17 13 14 13 11 10 10 12 14 16 17 18 19 19
14 13 12 11 9 9 8 7 7 7 7 9 11 10 10 10 10 10 9 10 12 14 14 13 15 14 13 11 9 10 11 11 10 10 9 11 14 16 17 17 17 19 19
13 13 12 11 10 9 8 7 7 7 7 8 9 10 10 8 8 9 8 9 9 9 9 10 9 11 12 12 12 12 12 11 10 9 9 9 13 15 17 17 17 17 19
13 12 12 11 11 10 9 7 7 7 7 8 8 9 10 9 9 9 8 9 11 11 10 9 10 10 10 11 12 12 12 12 12 12 10 11 14 16 17 17 17 17 18
13 13 12 12 11 10 9 8 7 7 7 9 9 9 11 11 9 9 10 10 11 11 11 9 11 10 10 10 11 12 12 13 12 12 13 12 14 16 17 18 17 17 17
12 11 12 12 11 11 10 9 7 7 8 7 8 9 10 11 11 10 11 11 11 12 12 11 11 10 10 11 12 13 12 12 12 12 13 12 13 14 17 18 18 18 18
11 11 11 9 9 9 8 7 6 7 7 7 8 9 10 11 12 10 11 11 11 11 10 10 11 11 11 10 10 10 10 9 11 12 13 12 12 13 14 17 18 18 18
11 10 9 8 7 7 6 6 6 5 6 7 7 7 8 10 10 10 10 10 11 10 11 11 10 10 12 11 10 10 11 11 11 12 13 13 13 14 14 14 16 18 19
10 9 8 7 6 5 4 4 4 4 5 5 5 5 7 8 9 9 9 10 11 11 11 11 12 12 12 11 11 12 11 11 12 12 14 13 12 15 16 16 14 15 19
9 9 8 7 6 5 3 3 2 3 3 3 4 4 6 7 8 8 10 9 10 10 11 13 12 14 12 10 10 11 13 15 15 13 14 13 14 13 13 14 14 14 12
10 9 8 8 7 6 4 2 2 3 3 4 4 4 5 6 8 8 9 11 10 10 12 12 12 11 11 9 8 8 9 10 13 15 14 13 14 11 12 14 13 12 13
9 9 8 8 7 6 5 4 3 3 4 4 4 4 5 7 8 8 10 11 11 12 11 11 12 13 11 10 10 9 8 9 7 8 12 12 12 11 11 12 12 13 13
7 7 6 7 7 6 6 5 4 4 5 5 5 6 7 7 8 9 9 10 11 11 11 12 12 11 12 12 11 12 13 11 8 7 8 10 12 11 12 10 11 10 11
4 5 5 5 6 6 6 5 5 5 5 5 6 6 8 7 7 8 9 10 10 11 12 12 12 13 12 13 12 11 12 13 14 12 10 8 9 9 9 9 8 7 7
2 4 4 5 5 5 5 5 5 5 6 7 8 8 8 7 7 8 9 10 10 10 11 12 12 14 13 14 13 12 12 11 11 12 14 12 9 8 7 5 5 5 4
Wind_Direction
157 150 150 159 155 149 143 140 141 142 142 141 140 140 140 138 135 131 125 118 112 106 102 99 101 105 106 107 111 112 115 116 116 117 116 113 111 112 118 132 168 133 121
151 148 152 160 158 152 147 143 142 143 144 144 144 144 142 140 138 134 131 126 121 113 107 104 104 108 109 111 114 118 122 127 129 129 133 133 126 124 129 152 311 109 138
147 148 156 161 160 156 151 148 147 147 147 148 148 147 145 144 142 140 138 135 130 123 117 114 114 116 118 121 125 129 134 139 144 149 186 167 137 146 153 159 122 129 155
147 151 159 160 162 159 156 154 153 153 152 153 153 153 152 151 151 150 148 147 144 140 137 136 135 135 135 137 141 145 150 157 166 188 210 163 152 147 175 179 179 176 181
148 153 153 161 164 163 161 159 159 159 159 160 161 162 163 164 165 165 164 166 170 170 172 176 178 174 171 171 172 176 181 188 200 232 225 208 183 144 184 198 197 196 198
153 156 152 164 166 166 166 166 166 166 167 168 170 172 174 177 181 183 185 191 200 209 212 213 216 214 209 209 210 212 216 221 233 235 223 226 218 157 195 216 211 205 205
157 155 154 166 168 170 170 172 173 173 175 177 180 183 187 192 198 204 210 216 224 232 238 240 238 236 232 228 227 228 230 235 252 259 241 237 231 158 207 232 228 218 212
157 158 152 166 171 173 175 177 180 182 185 188 192 195 200 206 213 220 227 232 235 239 241 244 245 246 245 243 239 237 238 248 250 252 245 243 209 182 226 242 244 237 226
161 160 159 169 175 178 181 184 187 191 195 200 204 208 212 218 225 230 235 239 241 241 242 243 245 246 246 245 245 244 244 247 263 263 254 246 183 198 231 243 249 249 243
166 168 170 174 177 183 187 189 195 202 207 212 217 222 225 230 232 232 237 233 238 244 247 249 249 250 248 246 245 244 245 248 250 253 248 236 178 208 234 243 247 250 249
174 177 182 178 184 193 198 185 197 208 215 221 225 224 232 242 241 227 232 223 238 247 251 252 252 252 252 245 239 238 239 248 251 252 250 213 187 221 240 245 246 248 248
181 184 191 189 190 198 206 194 214 217 215 224 237 234 235 244 256 261 245 227 244 249 252 250 251 251 248 251 232 220 240 243 255 253 242 194 211 232 243 246 247 247 245
184 188 192 194 198 206 207 216 221 230 229 232 238 243 251 261 255 253 253 232 233 238 246 241 238 244 246 247 259 243 250 260 256 259 253 193 218 235 244 247 247 247 244
188 192 194 194 198 211 221 222 229 237 237 244 239 243 249 249 258 262 261 266 261 250 248 256 252 252 255 259 257 259 259 253 258 261 262 223 228 240 247 249 249 249 245
190 195 196 198 203 207 216 232 237 247 256 254 260 256 258 260 261 264 265 264 266 264 256 250 257 257 255 255 258 258 259 260 259 260 260 237 236 242 248 252 252 251 248
193 196 197 202 206 210 215 224 239 250 251 265 264 264 264 266 269 272 270 266 266 267 265 262 258 256 254 254 254 256 258 260 259 260 263 256 234 237 245 251 253 252 252
195 196 200 204 208 213 222 231 243 252 260 266 271 272 271 270 271 271 273 271 268 267 263 259 260 257 251 248 248 250 251 252 256 259 263 267 264 243 236 242 248 252 255
196 198 202 207 208 215 224 237 252 262 269 274 279 282 281 282 279 277 276 276 277 274 269 264 259 258 255 251 251 254 255 253 255 257 257 255 259 265 252 236 238 246 253
197 199 200 207 210 212 222 232 250 263 270 277 283 289 293 292 289 284 282 283 283 277 273 270 267 262 260 254 251 249 250 251 250 252 253 253 253 255 260 257 239 240 248
190 191 191 190 199 194 202 219 250 260 269 275 287 298 303 302 301 300 289 289 289 283 278 273 271 264 260 257 257 257 249 248 249 249 251 250 249 251 253 259 259 248 237
178 177 179 172 175 177 184 214 236 262 279 288 293 314 309 311 314 306 301 304 294 287 285 282 277 271 264 257 258 256 251 247 248 247 245 246 246 248 254 256 257 260 255
169 167 167 169 168 174 175 198 245 292 289 298 302 305 304 311 312 305 308 301 297 293 283 281 278 275 272 258 248 257 261 252 239 238 238 239 243 243 246 248 248 249 257
165 166 165 165 165 177 185 201 210 232 257 270 290 292 306 310 307 308 303 300 300 291 287 285 281 274 273 266 247 245 253 256 255 231 230 234 236 237 240 244 245 247 249
165 162 166 173 176 184 198 217 239 273 295 311 304 306 307 300 305 307 304 301 297 293 290 283 279 277 271 268 257 245 249 264 264 255 230 228 228 233 239 244 246 244 246
181 180 184 189 196 200 211 216 236 261 285 295 299 298 298 302 302 305 307 305 300 294 293 290 286 277 270 266 263 257 251 249 247 253 254 239 228 228 229 234 243 249 246
234 219 217 215 223 223 227 233 247 268 280 291 295 302 302 306 307 310 310 306 299 297 294 288 284 277 271 268 265 259 252 247 240 239 246 246 242 231 217 222 232 231 223
Height
1522 1523 1524 1526 1530 1533 1536 1539 1541 1544 1545 1547 1548 1549 1550 1551 1552 1553 1554 1554 1555 1556 1556 1557 1557 1558 1558 1558 1558 1558 1558 1559 1559 1559 1559 1559 1560 1560 1560 1560 1561 1562 1561
1521 1522 1524 1527 1530 1534 1537 1540 1542 1545 1547 1548 1549 1551 1552 1553 1554 1554 1555 1556 1557 1557 1558 1558 1559 1559 1559 1559 1560 1560 1560 1560 1561 1561 1561 1561 1561 1561 1562 1562 1562 1565 1563
1521 1522 1525 1528 1531 1535 1538 1541 1543 1545 1547 1549 1550 1552 1553 1554 1555 1555 1556 1557 1558 1558 1559 1559 1559 1560 1560 1560 1561 1561 1561 1562 1562 1562 1563 1565 1564 1563 1563 1563 1563 1564 1564
1522 1524 1526 1529 1532 1536 1539 1541 1544 1546 1548 1550 1551 1552 1553 1554 1555 1556 1557 1557 1558 1559 1559 1559 1560 1560 1560 1561 1561 1561 1562 1562 1563 1563 1565 1567 1566 1564 1564 1564 1564 1564 1565
1524 1526 1528 1530 1533 1537 1539 1542 1544 1546 1548 1550 1551 1552 1553 1554 1555 1556 1557 1557 1558 1558 1559 1559 1559 1560 1560 1560 1561 1561 1562 1562 1562 1563 1566 1566 1566 1564 1564 1564 1564 1565 1565
1525 1529 1529 1532 1534 1537 1540 1543 1545 1547 1548 1550 1551 1552 1553 1554 1555 1555 1556 1556 1557 1557 1558 1558 1558 1559 1559 1559 1560 1560 1561 1561 1562 1564 1565 1565 1565 1564 1564 1564 1564 1564 1565
1528 1530 1530 1532 1535 1538 1540 1543 1545 1547 1548 1550 1551 1552 1553 1553 1554 1555 1555 1555 1556 1556 1556 1557 1557 1557 1557 1558 1558 1558 1559 1559 1560 1563 1564 1563 1564 1562 1563 1563 1563 1563 1564
1529 1531 1531 1533 1536 1538 1541 1543 1545 1546 1548 1549 1550 1551 1552 1552 1553 1553 1554 1554 1554 1554 1554 1555 1555 1555 1555 1556 1556 1556 1557 1557 1559 1561 1561 1561 1561 1560 1560 1561 1561 1562 1562
1530 1533 1533 1534 1536 1538 1541 1543 1544 1546 1547 1548 1549 1550 1551 1551 1551 1552 1552 1552 1552 1552 1552 1552 1552 1553 1553 1553 1554 1554 1554 1555 1555 1558 1558 1558 1557 1557 1557 1558 1559 1559 1560
1531 1533 1534 1536 1537 1539 1541 1542 1544 1545 1546 1547 1548 1548 1549 1549 1549 1549 1550 1549 1549 1550 1550 1550 1550 1551 1551 1551 1551 1552 1552 1552 1552 1555 1555 1555 1553 1554 1554 1555 1555 1556 1557
1530 1532 1535 1537 1538 1540 1542 1543 1543 1544 1545 1546 1546 1547 1547 1548 1549 1549 1548 1547 1547 1547 1547 1547 1548 1548 1548 1548 1548 1549 1549 1549 1552 1552 1552 1551 1550 1550 1550 1551 1551 1552 1553
1528 1531 1533 1536 1537 1539 1542 1542 1543 1544 1545 1544 1546 1546 1546 1546 1547 1547 1546 1545 1545 1544 1544 1544 1545 1545 1545 1546 1546 1546 1546 1547 1548 1548 1548 1546 1547 1547 1547 1547 1548 1549 1550
1527 1530 1532 1534 1535 1538 1540 1541 1542 1543 1544 1544 1544 1544 1543 1544 1544 1544 1544 1543 1541 1541 1541 1542 1541 1541 1542 1543 1543 1544 1543 1544 1544 1544 1544 1542 1543 1543 1543 1544 1544 1545 1546
1527 1529 1531 1532 1533 1535 1537 1539 1539 1541 1542 1542 1542 1541 1541 1540 1540 1541 1540 1540 1539 1539 1538 1538 1538 1538 1538 1538 1539 1539 1539 1539 1539 1539 1539 1538 1539 1539 1540 1540 1541 1541 1542
1525 1527 1529 1530 1532 1533 1534 1536 1537 1538 1539 1540 1538 1538 1538 1537 1537 1537 1535 1534 1534 1534 1534 1533 1533 1533 1533 1533 1534 1534 1534 1535 1534 1534 1534 1533 1534 1535 1535 1536 1537 1537 1538
1524 1526 1528 1529 1530 1532 1533 1534 1535 1536 1536 1535 1535 1535 1534 1534 1533 1532 1531 1530 1529 1529 1529 1528 1528 1528 1528 1528 1528 1529 1529 1529 1529 1529 1529 1529 1529 1530 1531 1531 1532 1533 1534
1523 1525 1526 1527 1529 1530 1531 1532 1533 1533 1533 1533 1532 1531 1530 1529 1528 1527 1526 1525 1525 1524 1523 1523 1522 1523 1522 1522 1522 1523 1523 1523 1524 1523 1524 1524 1524 1525 1525 1526 1527 1528 1528
1521 1523 1524 1526 1527 1528 1529 1530 1531 1531 1531 1530 1530 1529 1527 1526 1525 1523 1522 1521 1520 1519 1518 1517 1516 1517 1516 1516 1517 1517 1517 1517 1517 1517 1517 1518 1518 1519 1520 1520 1521 1522 1522
1519 1521 1522 1524 1525 1527 1528 1528 1529 1528 1528 1528 1527 1526 1524 1523 1521 1519 1518 1516 1514 1513 1512 1511 1510 1510 1509 1509 1509 1510 1510 1510 1510 1510 1511 1511 1512 1512 1513 1514 1515 1515 1516
1517 1519 1521 1522 1523 1524 1526 1526 1527 1527 1527 1526 1525 1523 1521 1519 1517 1515 1514 1511 1510 1508 1506 1505 1504 1503 1503 1503 1503 1502 1502 1502 1502 1502 1503 1504 1505 1506 1507 1507 1508 1508 1508
1515 1517 1519 1521 1522 1523 1524 1525 1526 1526 1525 1524 1523 1520 1518 1516 1514 1511 1510 1507 1505 1503 1501 1500 1499 1497 1496 1497 1496 1495 1494 1494 1494 1494 1495 1496 1497 1499 1499 1500 1501 1502 1502
1514 1516 1518 1520 1521 1522 1523 1524 1523 1523 1523 1522 1520 1517 1515 1513 1510 1509 1506 1504 1502 1499 1496 1495 1493 1491 1490 1491 1490 1489 1488 1488 1486 1487 1488 1489 1490 1491 1492 1493 1494 1494 1495
1514 1515 1517 1518 1519 1521 1521 1522 1521 1520 1520 1519 1518 1515 1512 1509 1507 1504 1501 1499 1497 1495 1493 1490 1488 1487 1485 1485 1485 1485 1484 1481 1481 1481 1480 1481 1482 1483 1484 1486 1487 1487 1488
1514 1515 1516 1516 1518 1518 1519 1520 1520 1519 1518 1517 1514 1512 1509 1506 1503 1501 1498 1495 1492 1490 1488 1485 1484 1482 1481 1480 1479 1478 1478 1478 1478 1476 1476 1476 1476 1476 1478 1479 1480 1481 1481
1513 1514 1515 1515 1516 1516 1516 1517 1516 1516 1515 1514 1511 1508 1505 1503 1500 1497 1494 1491 1488 1485 1483 1480 1478 1476 1475 1474 1474 1473 1472 1472 1472 1472 1471 1472 1471 1471 1472 1473 1474 1475 1475
1513 1513 1514 1514 1514 1514 1514 1514 1513 1512 1511 1510 1507 1505 1503 1500 1497 1494 1491 1487 1484 1481 1478 1475 1472 1471 1469 1468 1467 1467 1466 1466 1465 1466 1466 1466 1466 1467 1467 1467 1468 1469 1470